Time,TemperatureF,DewpointF,PressureIn,WindDirection,WindDirectionDegrees,WindSpeedMPH,WindSpeedGustMPH,Humidity,HourlyPrecipIn,Conditions,Clouds,dailyrainin,SolarRadiationWatts/m^2,SoftwareType,DateUTC
2013-06-26 00:02:00,75.0,68.0,29.89,ESE,107,0.0,0.0,78,0.00,,,0.00,0.000000,,2013-06-26 04:02:00,
2013-06-26 00:33:00,74.0,67.0,29.90,South,177,0.0,1.0,80,0.00,,,0.00,0.000000,,2013-06-26 04:33:00,
2013-06-26 00:43:00,75.0,68.0,29.89,NW,304,0.0,3.0,80,0.00,,,0.00,0.000000,,2013-06-26 04:43:00,
2013-06-26 00:53:00,75.0,68.0,29.89,NW,304,0.0,3.0,80,0.00,,,0.00,0.000000,,2013-06-26 04:53:00,
2013-06-26 01:02:00,75.0,68.0,29.88,East,100,0.0,0.0,80,0.00,,,0.00,0.000000,,2013-06-26 05:02:00,
2013-06-26 01:11:00,74.0,67.0,29.87,East,100,0.0,0.0,80,0.00,,,0.00,0.000000,,2013-06-26 05:11:00,
2013-06-26 01:22:00,74.0,67.0,29.87,East,100,0.0,0.0,80,0.00,,,0.00,0.000000,,2013-06-26 05:22:00,
2013-06-26 01:34:00,74.0,68.0,29.87,East,100,0.0,0.0,81,0.00,,,0.00,0.000000,,2013-06-26 05:34:00,
2013-06-26 01:43:00,74.0,68.0,29.86,East,101,0.0,0.0,81,0.00,,,0.00,0.000000,,2013-06-26 05:43:00,
2013-06-26 01:52:00,74.0,68.0,29.86,East,101,0.0,0.0,81,0.00,,,0.00,0.000000,,2013-06-26 05:52:00,
2013-06-26 02:02:00,73.0,67.0,29.86,East,101,0.0,0.0,81,0.00,,,0.00,0.000000,,2013-06-26 06:02:00,
2013-06-26 02:22:00,73.0,67.0,29.86,East,101,0.0,0.0,82,0.00,,,0.00,0.000000,,2013-06-26 06:22:00,
2013-06-26 02:34:00,73.0,67.0,29.85,East,101,0.0,0.0,82,0.00,,,0.00,0.000000,,2013-06-26 06:34:00,
2013-06-26 02:43:00,73.0,67.0,29.85,East,101,0.0,0.0,82,0.00,,,0.00,0.000000,,2013-06-26 06:43:00,
2013-06-26 03:01:00,72.0,67.0,29.85,East,101,0.0,0.0,84,0.00,,,0.00,0.000000,,2013-06-26 07:01:00,
2013-06-26 03:11:00,72.0,67.0,29.84,East,101,0.0,0.0,84,0.00,,,0.00,0.000000,,2013-06-26 07:11:00,
2013-06-26 03:22:00,72.0,67.0,29.84,East,101,0.0,0.0,84,0.00,,,0.00,0.000000,,2013-06-26 07:22:00,
2013-06-26 03:33:00,72.0,67.0,29.85,East,101,0.0,0.0,85,0.00,,,0.00,0.000000,,2013-06-26 07:33:00,
2013-06-26 03:43:00,73.0,68.0,29.85,East,101,0.0,0.0,85,0.00,,,0.00,0.000000,,2013-06-26 07:43:00,
2013-06-26 03:53:00,73.0,68.0,29.85,East,101,0.0,0.0,85,0.00,,,0.00,0.000000,,2013-06-26 07:53:00,
2013-06-26 04:01:00,72.0,67.0,29.85,East,101,0.0,0.0,85,0.00,,,0.00,0.000000,,2013-06-26 08:01:00,
2013-06-26 04:22:00,72.0,68.0,29.85,East,101,0.0,0.0,86,0.00,,,0.00,0.000000,,2013-06-26 08:22:00,
2013-06-26 04:33:00,72.0,68.0,29.85,SW,227,0.0,1.0,86,0.00,,,0.00,0.000000,,2013-06-26 08:33:00,
2013-06-26 04:42:00,72.0,67.0,29.85,SSW,194,0.0,1.0,85,0.00,,,0.00,0.000000,,2013-06-26 08:42:00,
2013-06-26 04:52:00,72.0,67.0,29.85,SSW,194,0.0,1.0,85,0.00,,,0.00,0.000000,,2013-06-26 08:52:00,
2013-06-26 05:01:00,73.0,68.0,29.85,SSW,205,0.0,0.0,85,0.00,,,0.00,0.000000,,2013-06-26 09:01:00,
2013-06-26 05:23:00,73.0,68.0,29.86,NNW,337,0.0,1.0,83,0.00,,,0.00,0.000000,,2013-06-26 09:23:00,
2013-06-26 05:33:00,73.0,68.0,29.86,SW,219,0.0,0.0,83,0.00,,,0.00,0.000000,,2013-06-26 09:33:00,
2013-06-26 05:43:00,72.0,67.0,29.87,SW,223,0.0,1.0,84,0.00,,,0.00,0.000000,,2013-06-26 09:43:00,
2013-06-26 05:53:00,72.0,67.0,29.87,SW,223,0.0,1.0,84,0.00,,,0.00,0.000000,,2013-06-26 09:53:00,
2013-06-26 06:01:00,72.0,67.0,29.87,South,179,0.0,2.0,84,0.00,,,0.00,11.000000,,2013-06-26 10:01:00,
2013-06-26 06:12:00,72.0,67.0,29.87,South,179,0.0,2.0,84,0.00,,,0.00,11.000000,,2013-06-26 10:12:00,
2013-06-26 06:22:00,72.0,67.0,29.88,West,277,0.0,1.0,85,0.00,,,0.00,25.000000,,2013-06-26 10:22:00,
2013-06-26 06:34:00,72.0,67.0,29.88,SSW,211,0.0,0.0,85,0.00,,,0.00,39.000000,,2013-06-26 10:34:00,
2013-06-26 06:53:00,73.0,68.0,29.89,ESE,115,0.0,1.0,85,0.00,,,0.00,63.000000,,2013-06-26 10:53:00,
2013-06-26 07:02:00,73.0,68.0,29.89,ESE,115,0.0,0.0,84,0.00,,,0.00,116.000000,,2013-06-26 11:02:00,
2013-06-26 07:12:00,73.0,68.0,29.89,ESE,115,0.0,0.0,84,0.00,,,0.00,116.000000,,2013-06-26 11:12:00,
2013-06-26 07:33:00,74.0,68.0,29.90,SSE,156,0.0,1.0,82,0.00,,,0.00,135.000000,,2013-06-26 11:33:00,
2013-06-26 07:52:00,75.0,69.0,29.89,SSE,156,0.0,1.0,81,0.00,,,0.00,229.000000,,2013-06-26 11:52:00,
2013-06-26 08:02:00,75.0,69.0,29.90,ESE,103,0.0,2.0,81,0.00,,,0.00,272.000000,,2013-06-26 12:02:00,
2013-06-26 08:12:00,75.0,69.0,29.90,ESE,103,0.0,2.0,81,0.00,,,0.00,272.000000,,2013-06-26 12:12:00,
2013-06-26 08:22:00,76.0,69.0,29.91,NW,314,0.0,2.0,78,0.00,,,0.00,316.000000,,2013-06-26 12:22:00,
2013-06-26 08:33:00,76.0,68.0,29.91,NNW,345,0.0,4.0,76,0.00,,,0.00,390.000000,,2013-06-26 12:33:00,
2013-06-26 08:43:00,76.0,69.0,29.91,SE,127,0.0,2.0,78,0.00,,,0.00,436.000000,,2013-06-26 12:43:00,
2013-06-26 08:52:00,76.0,69.0,29.91,SE,127,0.0,2.0,78,0.00,,,0.00,436.000000,,2013-06-26 12:52:00,
2013-06-26 09:02:00,78.0,69.0,29.91,SE,130,0.0,3.0,75,0.00,,,0.00,466.000000,,2013-06-26 13:02:00,
2013-06-26 09:11:00,78.0,69.0,29.91,SE,130,0.0,3.0,75,0.00,,,0.00,466.000000,,2013-06-26 13:11:00,
2013-06-26 09:23:00,79.0,70.0,29.90,NNW,336,0.0,3.0,73,0.00,,,0.00,446.000000,,2013-06-26 13:23:00,
2013-06-26 09:43:00,79.0,69.0,29.90,WNW,286,0.0,2.0,72,0.00,,,0.00,527.000000,,2013-06-26 13:43:00,
2013-06-26 09:53:00,79.0,69.0,29.90,WNW,286,0.0,2.0,72,0.00,,,0.00,527.000000,,2013-06-26 13:53:00,
2013-06-26 10:02:00,78.0,69.0,29.91,SSW,213,0.0,3.0,74,0.00,,,0.00,378.000000,,2013-06-26 14:02:00,
2013-06-26 10:12:00,78.0,69.0,29.91,SSW,213,0.0,3.0,74,0.00,,,0.00,378.000000,,2013-06-26 14:12:00,
2013-06-26 10:24:00,80.0,70.0,29.91,WNW,298,0.0,2.0,72,0.00,,,0.00,842.000000,,2013-06-26 14:24:00,
2013-06-26 10:34:00,79.0,70.0,29.91,East,98,0.0,5.0,74,0.00,,,0.00,306.000000,,2013-06-26 14:34:00,
2013-06-26 10:53:00,78.0,69.0,29.90,WNW,286,0.0,1.0,74,0.00,,,0.00,329.000000,,2013-06-26 14:53:00,
2013-06-26 11:02:00,78.0,69.0,29.90,SE,130,0.0,1.0,73,0.00,,,0.00,258.000000,,2013-06-26 15:02:00,
2013-06-26 11:22:00,77.0,70.0,29.91,NE,52,0.0,0.0,78,0.00,,,0.00,199.000000,,2013-06-26 15:22:00,
2013-06-26 11:34:00,77.0,70.0,29.91,NE,51,0.0,1.0,80,0.00,,,0.00,322.000000,,2013-06-26 15:34:00,
2013-06-26 11:44:00,77.0,69.0,29.91,ESE,105,0.0,1.0,77,0.00,,,0.00,178.000000,,2013-06-26 15:44:00,
2013-06-26 11:53:00,77.0,69.0,29.91,ESE,105,0.0,1.0,77,0.00,,,0.00,178.000000,,2013-06-26 15:53:00,
2013-06-26 13:43:00,76.0,71.0,29.92,SSE,161,0.0,0.0,85,0.00,,,0.00,137.000000,,2013-06-26 17:43:00,
2013-06-26 13:52:00,76.0,71.0,29.92,SSE,161,0.0,0.0,85,0.00,,,0.00,137.000000,,2013-06-26 17:52:00,
2013-06-26 14:22:00,76.0,71.0,29.91,SSE,156,0.0,1.0,84,0.00,,,0.00,304.000000,,2013-06-26 18:22:00,
2013-06-26 14:34:00,79.0,71.0,29.91,SSE,157,0.0,2.0,76,0.00,,,0.00,346.000000,,2013-06-26 18:34:00,
2013-06-26 14:43:00,79.0,71.0,29.91,SSE,152,0.0,2.0,76,0.00,,,0.00,434.000000,,2013-06-26 18:43:00,
2013-06-26 14:52:00,79.0,71.0,29.91,SSE,152,0.0,2.0,76,0.00,,,0.00,434.000000,,2013-06-26 18:52:00,
2013-06-26 15:02:00,79.0,70.0,29.91,SE,125,0.0,4.0,74,0.00,,,0.00,325.000000,,2013-06-26 19:02:00,
2013-06-26 15:11:00,79.0,70.0,29.91,SE,125,0.0,4.0,74,0.00,,,0.00,325.000000,,2013-06-26 19:11:00,
2013-06-26 15:22:00,79.0,71.0,29.91,South,179,0.0,2.0,76,0.00,,,0.00,338.000000,,2013-06-26 19:22:00,
2013-06-26 15:43:00,78.0,70.0,29.89,East,96,0.0,1.0,76,0.00,,,0.00,253.000000,,2013-06-26 19:43:00,
2013-06-26 15:52:00,78.0,70.0,29.89,East,96,0.0,1.0,76,0.00,,,0.00,253.000000,,2013-06-26 19:52:00,
2013-06-26 16:02:00,79.0,72.0,29.89,East,96,0.0,1.0,78,0.00,,,0.00,508.000000,,2013-06-26 20:02:00,
2013-06-26 16:12:00,79.0,72.0,29.89,East,96,0.0,1.0,78,0.00,,,0.00,508.000000,,2013-06-26 20:12:00,
2013-06-26 16:43:00,79.0,71.0,29.88,East,86,0.0,0.0,76,0.00,,,0.00,258.000000,,2013-06-26 20:43:00,
2013-06-26 17:02:00,80.0,71.0,29.88,NNE,24,0.0,1.0,74,0.00,,,0.00,246.000000,,2013-06-26 21:02:00,
2013-06-26 17:33:00,78.0,72.0,29.88,NNE,25,0.0,0.0,81,0.00,,,0.00,192.000000,,2013-06-26 21:33:00,
2013-06-26 17:43:00,78.0,71.0,29.88,NNE,25,0.0,0.0,80,0.00,,,0.00,142.000000,,2013-06-26 21:43:00,
2013-06-26 17:52:00,78.0,71.0,29.88,NNE,25,0.0,0.0,80,0.00,,,0.00,142.000000,,2013-06-26 21:52:00,
2013-06-26 22:42:00,72.0,69.0,29.89,ESE,116,0.0,0.0,89,0.00,,,0.00,0.000000,,2013-06-27 02:42:00,
2013-06-26 22:52:00,72.0,69.0,29.89,ESE,116,0.0,0.0,89,0.00,,,0.00,0.000000,,2013-06-27 02:52:00,
2013-06-26 23:02:00,72.0,69.0,29.89,ESE,116,0.0,0.0,89,0.00,,,0.00,0.000000,,2013-06-27 03:02:00,
2013-06-26 23:11:00,71.0,68.0,29.91,ESE,116,0.0,0.0,91,0.00,,,0.00,0.000000,,2013-06-27 03:11:00,
2013-06-26 23:22:00,71.0,68.0,29.91,ESE,116,0.0,0.0,91,0.00,,,0.00,0.000000,,2013-06-27 03:22:00,
2013-06-26 23:33:00,71.0,68.0,29.91,ESE,116,0.0,0.0,91,0.00,,,0.00,0.000000,,2013-06-27 03:33:00,
2013-06-26 23:42:00,71.0,68.0,29.91,ESE,116,0.0,0.0,91,0.00,,,0.00,0.000000,,2013-06-27 03:42:00,
2013-06-26 23:52:00,71.0,68.0,29.91,ESE,116,0.0,0.0,90,0.00,,,0.00,0.000000,,2013-06-27 03:52:00,